Location: Berlin
(38.3226°N, 75.2177°W)
Time: 21:39:12
(UTC+00:00)

CZ-4B R/B - Pass Details

Date: 26 October 2020
Orbit: 489 x 649 km, 97.9° (Epoch: 25 November)

Event Time Altitude Azimuth Distance (km) Brightness Sun altitude
Rises 10:43:34 0° 2° (N) 2,736 6.3 -8.1°
Reaches altitude 10° 10:45:46 10° 354° (N) 1,864 5.4 -7.6°
Maximum altitude 10:49:28 36° 287° (WNW) 936 3.5 -6.9°
Drops below altitude 10° 10:53:19 10° 221° (SW) 1,940 5.3 -6.2°
Sets 10:55:40 0° 213° (SSW) 2,865 6.3 -5.7°
